Printer-friendly version

IAU Minor Planet Center

Minor Planet Center

MPEC 2006-F46 : 2006 FV33

The following Minor Planet Electronic Circular may be linked-to from your own Web pages, but must not otherwise be redistributed electronically.


Read MPEC 2006-F45 Read MPEC 2006-F47


M.P.E.C. 2006-F46                                Issued 2006 Mar. 29, 16:15 UT

     The Minor Planet Electronic Circulars contain information on unusual
         minor planets and routine data on comets.  They are published
   on behalf of Commission 20 of the International Astronomical Union by the
          Minor Planet Center, Smithsonian Astrophysical Observatory,
                          Cambridge, MA 02138, U.S.A.

                  Supported in part by the Brinson Foundation
                  Supported in part by the TABASGO Foundation
             Prepared using the Tamkin Foundation Computer Network

                              MPC@CFA.HARVARD.EDU
          URL http://cfa-www.harvard.edu/iau/mpc.html  ISSN 1523-6714

                                   2006 FV33

Observations:
     K06F33V* C2006 03 25.36733 14 19 15.56 -13 44 49.8          20.9 V EF046691
     K06F33V  C2006 03 25.38460 14 19 14.46 -13 44 19.2          21.3 V EF046691
     K06F33V  C2006 03 25.40189 14 19 13.32 -13 43 48.6          20.8 V EF046691
     K06F33V  C2006 03 26.38032 14 18 14.36 -13 14 48.0          20.8 V EF046G96
     K06F33V  C2006 03 26.38802 14 18 13.86 -13 14 34.4          20.9 V EF046G96
     K06F33V  C2006 03 26.39568 14 18 13.35 -13 14 20.7          20.8 V EF046G96
     K06F33V  C2006 03 26.40350 14 18 12.85 -13 14 06.7          21.1 V EF046G96
     K06F33V  C2006 03 29.50027 14 14 55.24 -11 41 46.9          20.8 R EF046474
     K06F33V  C2006 03 29.50464 14 14 54.97 -11 41 38.6          20.7 R EF046474
     K06F33V IC2006 03 29.50965 14 14 54.57 -11 41 30.3                 EF046474

Observer details:
474 Mount John Observatory, Lake Tekapo.  Observer A. C. Gilmore.  1.0-m f/7.7
    reflector + CCD.
691 Steward Observatory, Kitt Peak.  Observers T. H. Bressi, M. T. Read,
    A. F. Tubbiolo.  0.9-m f/3 reflector + CCD.
G96 Mt. Lemmon Survey.  Observer R. A. Kowalski.  Measurers E. C. Beshore,
    E. J. Christensen, G. J. Garradd, A. R. Gibbs, A. D. Grauer, R. E. Hill,
    R. A. Kowalski, S. M. Larson, R. H. McNaught.  1.5-m reflector + CCD.

Orbital elements:
2006 FV33                                                Earth MOID = 0.3138 AU
Epoch 2006 Mar. 6.0 TT = JDT 2453800.5                  MPC
M  26.19731              (2000.0)            P               Q
n   0.29591878     Peri.  272.36371     -0.31942106     -0.94265601
a   2.2302542      Node   197.24849     +0.94603581     -0.31133050
e   0.5196135      Incl.   19.05347     +0.05464826     -0.12030366
P   3.33           H   19.9           G   0.15           U   7
Residuals in seconds of arc
060325 691  0.1+  0.1+    060326 G96  0.0   0.1-    060329 474  0.4+  0.4+
060325 691  0.2+  0.0     060326 G96  0.1-  0.0     060329 474  0.3-  0.2-
060325 691  0.2-  0.1-    060326 G96  0.2+  0.1+
060326 G96  0.1-  0.0     060329 474  0.1-  0.2-

Ephemeris:
2006 FV33                a,e,i = 2.23, 0.52, 19                  q = 1.0714
Date    TT    R. A. (2000) Decl.     Delta      r     Elong.  Phase     V
2006 03 26    14 18.63   -13 25.9    0.664    1.601   148.2    19.1    21.0
2006 04 05    14 07.35   -08 31.3    0.691    1.671   161.9    10.7    20.9
2006 04 15    13 55.32   -04 02.3    0.742    1.741   172.0     4.6    20.9
2006 04 25    13 44.60   -00 24.0    0.818    1.810   166.0     7.7    21.3
2006 05 05    13 36.55   +02 12.8    0.917    1.878   154.7    13.3    21.9

Kyle E. Smalley              (C) Copyright 2006 MPC           M.P.E.C. 2006-F46

Read MPEC 2006-F45 Read MPEC 2006-F47


Our Web policy. Index to the CBAT/MPC/ICQ pages.


Valid HTML 4.01!